Date String (YYYY-MM-DD hh:mm:ss) UTC,Instrument flags,Ambient pressure (hPa),Sample flow (lpm),Bypass flow (lpm),Sample temperature (°C),Ambient temperature (°C),ASC tube jacket temperature (°C),LED temperature (°C),Box temperature (°C),Sample RH (%),Span deviation,Mass concentration (μg/m³),Mass concentration (μg/m³),Mass concentration (μg/m³)
DateTimeUTC,F1_M11,P_M11,Q1_M11,Q2_M11,T1_M11,T2_M11,T3_M11,T4_M11,T5_M11,U1_M11,ZSPAN_M11,X0_M11,X2_M11,X1_M11
2021-12-20 04:00:00,,0824.2,5.00,0.00,24.3,23.5,00.0,33.4,26.0,03.7,0000.0,0001.06,0000.76,0000.65
2021-12-20 04:01:00,,0824.3,5.01,0.00,24.4,23.5,00.0,33.4,26.1,03.7,0000.0,0001.03,0000.74,0000.65
2021-12-20 04:02:00,,0824.3,5.00,0.00,24.4,23.5,00.0,33.4,26.0,03.7,0000.0,0001.02,0000.74,0000.65
2021-12-20 04:03:00,,0824.3,5.01,0.00,24.4,23.5,00.0,33.4,26.0,03.8,0000.0,0001.02,0000.74,0000.66
2021-12-20 04:04:00,,0824.2,4.99,0.00,24.4,23.5,00.0,33.4,26.1,03.8,0000.0,0001.01,0000.74,0000.67
2021-12-20 04:05:00,,0824.2,4.99,0.00,24.4,23.6,00.0,33.4,26.1,03.8,0000.0,0000.91,0000.72,0000.66
2021-12-20 04:06:00,,0824.2,5.02,0.00,24.4,23.6,00.0,33.4,26.1,03.8,0000.0,0000.84,0000.71,0000.67
2021-12-20 04:07:00,,0824.2,4.99,0.00,24.4,23.6,00.0,33.4,26.2,03.8,0000.0,0000.84,0000.71,0000.67
2021-12-20 04:08:00,,0824.2,5.01,0.00,24.4,23.6,00.0,33.4,26.2,03.8,0000.0,0000.87,0000.72,0000.66
2021-12-20 04:09:00,,0824.2,4.99,0.00,24.4,23.6,00.0,33.4,26.2,03.8,0000.0,0000.87,0000.72,0000.67
2021-12-20 04:10:00,,0824.2,5.00,0.00,24.4,23.6,00.0,33.4,26.2,03.8,0000.0,0000.92,0000.73,0000.67
2021-12-20 04:11:00,,0824.2,4.99,0.00,24.4,23.6,00.0,33.4,26.2,03.8,0000.0,0001.00,0000.75,0000.67
2021-12-20 04:12:00,,0824.2,5.01,0.00,24.4,23.6,00.0,33.4,26.2,03.9,0000.0,0001.09,0000.76,0000.66
2021-12-20 04:13:00,,0824.2,5.00,0.00,24.4,23.6,00.0,33.4,26.2,03.9,0000.0,0001.09,0000.75,0000.65
2021-12-20 04:14:00,,0824.2,5.00,0.00,24.4,23.6,00.0,33.4,26.2,03.8,0000.0,0001.09,0000.75,0000.64
2021-12-20 04:15:00,,0824.2,5.00,0.00,24.4,23.7,00.0,33.4,26.2,03.8,0000.0,0001.12,0000.76,0000.64
2021-12-20 04:16:00,,0824.2,4.99,0.00,24.5,23.7,00.0,33.4,26.3,03.8,0000.0,0001.14,0000.77,0000.65
2021-12-20 04:17:00,,0824.2,5.01,0.00,24.5,23.7,00.0,33.4,26.3,03.8,0000.0,0001.14,0000.77,0000.64
2021-12-20 04:18:00,,0824.2,5.01,0.00,24.5,23.7,00.0,33.4,26.3,03.8,0000.0,0001.19,0000.79,0000.65
2021-12-20 04:19:00,,0824.2,5.00,0.00,24.5,23.7,00.0,33.4,26.3,03.8,0000.0,0001.21,0000.82,0000.66
2021-12-20 04:20:00,,0824.2,5.00,0.00,24.5,23.7,00.0,33.4,26.3,03.8,0000.0,0001.24,0000.83,0000.66
2021-12-20 04:21:00,,0824.2,4.99,0.00,24.5,23.7,00.0,33.4,26.3,03.8,0000.0,0001.25,0000.83,0000.67
2021-12-20 04:22:00,,0824.4,5.02,0.00,24.5,23.7,00.0,33.4,26.3,03.8,0000.0,0001.98,0000.83,0000.67
2021-12-20 04:23:00,,0824.3,5.00,0.00,24.5,23.7,00.0,33.4,26.3,03.8,0000.0,0002.54,0000.83,0000.68
2021-12-20 04:24:00,,0824.3,4.99,0.00,24.5,23.7,00.0,33.5,26.3,03.8,0000.0,0002.54,0000.83,0000.69
2021-12-20 04:25:00,,0824.3,5.01,0.00,24.5,23.7,00.0,33.4,26.2,03.8,0000.0,0002.56,0000.85,0000.71
2021-12-20 04:26:00,,0824.3,4.98,0.00,24.5,23.7,00.0,33.4,26.3,03.8,0000.0,0002.64,0000.86,0000.72
2021-12-20 04:27:00,,0824.3,5.01,0.00,24.5,23.7,00.0,33.4,26.3,03.8,0000.0,0002.65,0000.88,0000.73
2021-12-20 04:28:00,,0824.2,5.00,0.00,24.5,23.7,00.0,33.4,26.2,03.8,0000.0,0002.68,0000.89,0000.75
2021-12-20 04:29:00,,0824.2,5.01,0.00,24.5,23.7,00.0,33.4,26.2,03.8,0000.0,0002.67,0000.89,0000.76
2021-12-20 04:30:00,,0824.3,4.99,0.00,24.5,23.7,00.0,33.4,26.2,03.8,0000.0,0002.63,0000.87,0000.75
2021-12-20 04:31:00,,0824.3,5.01,0.00,24.5,23.7,00.0,33.4,26.2,03.8,0000.0,0002.60,0000.86,0000.75
2021-12-20 04:32:00,,0824.3,5.00,0.00,24.4,23.7,00.0,33.4,26.2,03.9,0000.0,0002.60,0000.86,0000.75
2021-12-20 04:33:00,,0824.3,5.00,0.00,24.4,23.6,00.0,33.4,26.1,03.9,0000.0,0002.00,0000.85,0000.75
2021-12-20 04:34:00,,0824.3,5.00,0.00,24.4,23.6,00.0,33.4,26.1,04.1,0000.0,0001.13,0000.84,0000.74
2021-12-20 04:35:00,,0824.3,5.00,0.00,24.4,23.6,00.0,33.4,26.1,04.1,0000.0,0001.14,0000.84,0000.73
2021-12-20 04:36:00,,0824.2,4.99,0.00,24.4,23.6,00.0,33.4,26.1,04.2,0000.0,0001.17,0000.85,0000.73
2021-12-20 04:37:00,,0824.3,5.00,0.00,24.4,23.6,00.0,33.4,26.1,04.2,0000.0,0001.07,0000.82,0000.71
2021-12-20 04:38:00,,0824.3,5.01,0.00,24.4,23.6,00.0,33.4,26.1,04.2,0000.0,0001.09,0000.81,0000.69
2021-12-20 04:39:00,,0824.3,5.00,0.00,24.4,23.6,00.0,33.4,26.1,04.2,0000.0,0001.03,0000.78,0000.67
2021-12-20 04:40:00,,0824.3,4.99,0.00,24.4,23.6,00.0,33.4,26.1,04.3,0000.0,0001.01,0000.75,0000.65
2021-12-20 04:41:00,,0824.3,5.01,0.00,24.5,23.6,00.0,33.4,26.2,04.3,0000.0,0001.01,0000.74,0000.63
2021-12-20 04:42:00,,0824.3,4.99,0.00,24.5,23.6,00.0,33.4,26.2,04.3,0000.0,0001.01,0000.72,0000.62
2021-12-20 04:43:00,,0824.3,5.01,0.00,24.5,23.6,00.0,33.4,26.2,04.3,0000.0,0000.94,0000.70,0000.61
2021-12-20 04:44:00,,0824.3,4.99,0.00,24.5,23.7,00.0,33.4,26.2,04.2,0000.0,0000.93,0000.69,0000.60
2021-12-20 04:45:00,,0824.3,5.01,0.00,24.5,23.7,00.0,33.4,26.3,04.1,0000.0,0000.93,0000.69,0000.59
2021-12-20 04:46:00,,0824.3,5.00,0.00,24.5,23.7,00.0,33.4,26.3,03.8,0000.0,0000.94,0000.69,0000.60
2021-12-20 04:47:00,,0824.3,5.01,0.00,24.5,23.7,00.0,33.5,26.3,03.8,0000.0,0000.95,0000.69,0000.60
2021-12-20 04:48:00,,0824.3,5.00,0.00,24.5,23.6,00.0,33.5,26.2,04.0,0000.0,0000.95,0000.69,0000.60
2021-12-20 04:49:00,,0824.4,5.00,0.00,24.5,23.6,00.0,33.5,26.2,04.1,0000.0,0000.98,0000.69,0000.60
2021-12-20 04:50:00,,0824.4,4.98,0.00,24.5,23.7,00.0,33.5,26.2,04.2,0000.0,0000.97,0000.69,0000.60
2021-12-20 04:51:00,,0824.4,5.02,0.00,24.5,23.7,00.0,33.5,26.3,04.2,0000.0,0000.97,0000.69,0000.60
2021-12-20 04:52:00,,0824.4,5.00,0.00,24.5,23.7,00.0,33.5,26.3,03.9,0000.0,0000.92,0000.68,0000.60
2021-12-20 04:53:00,,0824.4,5.01,0.00,24.5,23.7,00.0,33.4,26.3,04.0,0000.0,0000.89,0000.68,0000.61
2021-12-20 04:54:00,,0824.3,4.98,0.00,24.5,23.7,00.0,33.5,26.3,03.9,0000.0,0000.90,0000.69,0000.62
2021-12-20 04:55:00,,0824.3,5.01,0.00,24.5,23.7,00.0,33.5,26.3,04.1,0000.0,0000.94,0000.70,0000.62
2021-12-20 04:56:00,,0824.4,4.99,0.00,24.5,23.7,00.0,33.4,26.2,04.3,0000.0,0000.94,0000.70,0000.61
2021-12-20 04:57:00,,0824.4,5.01,0.00,24.5,23.7,00.0,33.5,26.2,04.3,0000.0,0000.94,0000.69,0000.60
2021-12-20 04:58:00,,0824.3,4.99,0.00,24.5,23.7,00.0,33.5,26.2,04.5,0000.0,0000.92,0000.67,0000.58
2021-12-20 04:59:00,,0824.3,5.00,0.00,24.5,23.6,00.0,33.4,26.2,04.5,0000.0,0000.88,0000.65,0000.57
